Regional Weather Roundup
Issued by NWS

Home | Current Version | Previous Version | Text Only | Print | Product List | Glossary Off
Versions: 1 2 3 4 5 6 7 8 9 10 11 12 13 14 15 16 17 18 19 20 21 22 23 24 25 26 27 28 29 30 31 32 33 34 35 36 37 38 39 40 41 42 43 44 45 46 47 48 49 50

000
ASUS43 KMKX 201421
RWRWI

WISCONSIN REGIONAL WEATHER ROUNDUP
NATIONAL WEATHER SERVICE MILWAUKEE/SULLIVAN WI
800 AM CST SAT DEC 20 2014

NOTE: "FAIR" INDICATES FEW OR NO CLOUDS BELOW 12,000 FEET WITH NO
SIGNIFICANT WEATHER AND/OR OBSTRUCTIONS TO VISIBILITY.

WIZ001-002-006>008-014>016-023>028-201500-
NORTHWEST WISCONSIN

CITY           SKY/WX    TMP DP  RH WIND       PRES   REMARKS
SUPERIOR ARPT  CLOUDY    28  25  88 CALM      30.16F
ASHLAND        CLOUDY    27  23  85 S3        30.19F
HAYWARD        CLOUDY    26  21  81 S6        30.17S WCI  19
SIREN          CLOUDY    28  24  85 S7        30.15F WCI  21
CUMBERLAND     CLOUDY    28  23  80 S6        30.16S FOG     WCI  22
RICE LAKE      CLOUDY    28  24  86 SE6       30.19S WCI  21
CHETEK         CLOUDY    27  24  87 E3        30.19S
LADYSMITH      CLOUDY    27  24  87 SE5       30.20S WCI  22
EAU CLAIRE     CLOUDY    28  21  75 S6        30.19R WCI  22
MENOMONIE      CLOUDY    28  24  85 CALM      30.19S FOG
NEW RICHMOND   CLOUDY    28  26  91 SE7       30.17S WCI  21
OSCEOLA        CLOUDY    29  26  87 SE9       30.19S WCI  21
$$

WIZ003>005-009-010-017-018-201500-
NORTH CENTRAL WISCONSIN

CITY           SKY/WX    TMP DP  RH WIND       PRES   REMARKS
MANITOWISH WTR CLOUDY    23  23 100 SE3       30.16F FOG
ARBOR VITAE    CLOUDY    24  22  93 S3        30.17S FOG
WOODRUFF       CLOUDY    24  22  93 S3        30.17S FOG
RHINELANDER    CLOUDY    22  21  96 CALM      30.18S FOG
EAGLE RIVER    CLOUDY    22  22  99 CALM      30.17S FOG
LAND O LAKES   CLOUDY    22  21  96 CALM      30.18F FOG
PHILLIPS       CLOUDY    24  22  93 S3        30.17R
TOMAHAWK       CLOUDY    24  22  94 CALM      30.19S FOG
MEDFORD        CLOUDY    24  22  94 S5        30.18S FOG     WCI  18
MERRILL        CLOUDY    24  24  97 SE3       30.20F FOG
$$

WIZ029-030-035-036-043>047-201500-
CENTRAL WISCONSIN

CITY           SKY/WX    TMP DP  RH WIND       PRES   REMARKS
WAUSAU         CLOUDY    24  23  96 SE5       30.20S FOG     WCI  18
MOSINEE        NOT AVBL
MARSHFIELD     CLOUDY    25  22  88 S7        30.20S WCI  17
STEVENS POINT  CLOUDY    24  22  93 CALM      30.23S FOG
WAUPACA        CLOUDY    27  23  85 CALM      30.25F FOG
WAUTOMA        CLOUDY    26  24  92 CALM      30.25F FOG
WISC RAPIDS    CLOUDY    25  22  88 S3        30.23F
CAMP DOUGLAS   CLOUDY    27  27 100 SE5       30.22F WCI  21
$$

WIZ011>013-019>022-031-037>040-048>050-201500-
NORTHEAST WISCONSIN

CITY           SKY/WX    TMP DP  RH WIND       PRES   REMARKS
ANTIGO         CLOUDY    22  21  98 CALM      30.20S FOG
SHAWANO        CLOUDY    24  21  89 CALM      30.26S
OCONTO         CLOUDY    18  18  97 CALM      30.27S
STURGEON BAY   CLOUDY    25  19  80 CALM      30.28S
GREEN BAY      CLOUDY    22  20  92 CALM      30.27S FOG
MANITOWOC      CLOUDY    27  23  85 CALM      30.27S
APPLETON       MOCLDY    25  19  80 CALM      30.26S
CLINTONVILLE   CLOUDY    27  23  86 CALM      30.25F
OSHKOSH        CLOUDY    24  21  88 CALM      30.25F FOG
$$

WIZ032>034-041-042-053>061-201500-
SOUTHWEST WISCONSIN

CITY           SKY/WX    TMP DP  RH WIND       PRES   REMARKS
LA CROSSE      CLOUDY    31  24  75 S6        30.22S WCI  25
SPARTA         CLOUDY    28  24  86 CALM      30.23S
VIROQUA        CLOUDY    26  26 100 SE6       30.20S WCI  20
BOSCOBEL       CLOUDY    30  24  78 CALM      30.24F
PRAIRIE DU CHI CLOUDY    29  25  86 E6        30.23F WCI  23
PLATTEVILLE    CLOUDY    28  26  93 CALM      30.23F
$$

WIZ056-057-062-063-064-067-068-201500-
SOUTH CENTRAL WISCONSIN

CITY           SKY/WX    TMP DP  RH WIND       PRES   REMARKS
REEDSBURG      CLOUDY    26  24  93 CALM      30.23S FOG
BARABOO/DELLS  LGT SNOW  26  23  89 CALM      30.23S
LONE ROCK      CLOUDY    30  24  78 SE5       30.25S WCI  25
MINERAL POINT  CLOUDY    28  27  93 SE3       30.22S FOG
MADISON        FLURRIES  27  23  85 SE5       30.24S WCI  22
MIDDLETON      CLOUDY    29  25  85 CALM      30.24F
WATERTOWN      CLOUDY    25  24  96 CALM      30.26S FOG
MONROE         CLOUDY    27  27 100 CALM      30.24R FOG
JANESVILLE     CLOUDY    28  27  93 CALM      30.26S
$$

WIZ051-052-058>065-066-070>072-201500-
SOUTHEAST WISCONSIN

CITY           SKY/WX    TMP DP  RH WIND       PRES   REMARKS
MILWAUKEE      CLOUDY    27  18  69 W3        30.27S
WAUKESHA       CLOUDY    23  19  86 CALM      30.27S
MILWAUKEE/TIMM CLOUDY    27  19  74 W3        30.28S
RACINE         CLOUDY    27  19  72 CALM      30.29S
BURLINGTON     CLOUDY    25  20  81 CALM      30.27S
KENOSHA        CLOUDY    27  21  78 W3        30.27S
FOND DU LAC    CLOUDY    24  20  84 CALM      30.26S
SHEBOYGAN      CLOUDY    26  20  77 CALM      30.26S
WEST BEND      CLOUDY    27  19  74 CALM      30.26R
JUNEAU         LGT SNOW  24  22  91 E3        30.26S
$$

LSZ147-162-201500-
LAKE SUPERIOR

STATION/POSITION TIME  TEMP    WIND        PRES    WAVE
                       AIR SEA DIR/SP/G            HT/PER
                 (UTC) (F)     (DEG/KT/KT) (MB)    (FT/S)
DEVILS ISLAND    1400          180/  5/  7 1023.1S
PORT WING        1300   28     170/  8/ 12 1021.7F
SAXON HARBOR     1340   28     180/  5/  8 1022.4S
$$

LMZ867-665-643>646-201500-
LAKE MICHIGAN

STATION/POSITION TIME  TEMP    WIND        PRES    WAVE
                       AIR SEA DIR/SP/G            HT/PER
                 (UTC) (F)     (DEG/KT/KT) (MB)    (FT/S)
CHAMBERS ISLAND  1340   21      CALM  /  2 1025.1S
NORTHPORT PIER   1328   25     200/  2/  4 1025.1S
SISTER BAY       1258             CALM       N/A
ALGOMA LAKESHORE 1314          330/  7/  9   N/A
KEWAUNEE LAKESHO 1300   26     300/  4/  7 1024.1F
SHEBOYGAN LAKESH 1400   28 34  320/  4/  5 1026.1R
PORT WASHINGTON  1300   27     240/  2/  5 1025.7S
MILWAUKEE LAKESH 1400   28     280/  5/  7   N/A
KENOSHA   LAKESH 1400   27     310/  2/  3 1025.1F
$$

TC  - TEMPERATURE IN CELSIUS
VSB - VISIBILITY IN STATUTE MILES
WCI - WIND CHILL INDEX
HX  - HEAT INDEX



USA.gov is the U.S. government's official web portal to all federal, state and local government web resources and services.